[[{"header":{"parameterUnit":"m.s-1","parameterCategory":1,"la1":30.2991,"la2":30.254,"lo1":-89.0895,"lo2":-89.0444,"dy":0.0017,"dx":0.0017,"nx":28,"ny":28,"refTime":"2024-04-03T21:00:00:Z","depth":0,"parameterNumber":2,"parameterNumberName":"U-component_of_WINDS"},"data":[0,0,0,0,0,0,0,0,0,0,0,0,0,0,0,0,0,0,0,0,0,0,0,0,0,0,0,0,0,0,0,0,0,0,0,0,0,0,0,0,0,0,0,0,0,0,0,0,0,0,0,0,0,0,0,0,0,0,3.7811,3.7812,0,3.7911,3.7912,3.7913,3.7832,3.7828,3.7825,3.7821,3.7926,3.7932,3.7938,0,0,0,0,0,0,0,0,0,0,0,0,0,3.755,3.7555,3.7811,3.7812,3.7813,3.7911,3.7912,3.7914,3.7832,3.7828,3.7824,3.782,3.7924,3.7931,3.7939,0,0,0,0,0,0,0,0,0,0,0,0,0,3.7658,3.7557,3.781,3.7784,3.7783,3.791,3.7912,3.7914,3.7833,3.7828,3.7823,3.7818,3.7922,3.7931,3.794,3.8099,0,0,3.7967,3.7971,0,0,0,0,0,0,0,0,3.7652,3.7668,3.7787,3.7786,3.7785,3.7853,3.7858,3.7976,3.7834,3.7814,3.7821,3.7815,3.7906,3.7916,3.7947,3.8104,3.8108,3.7968,3.7973,3.7977,3.798,0,0,0,0,0,0,0,3.7645,3.7663,3.785,3.7789,3.7788,3.7768,3.7778,3.788,3.7888,3.7816,3.781,3.7823,3.7905,3.7938,3.7948,3.811,3.7968,3.7976,3.7981,3.7985,3.8401,3.8407,0,0,0,0,0,0,3.7639,3.7657,3.7847,3.7853,3.7704,3.7777,3.7788,3.7837,3.7887,3.7889,3.7827,3.7819,3.7925,3.7938,3.7952,3.814,3.7977,3.7986,3.7991,3.8396,3.8402,3.8409,0,0,0,0,0,0,3.7634,3.7657,3.7843,3.7754,3.7776,3.7787,3.7843,3.7841,3.7874,3.7895,3.7897,3.7859,3.7922,3.7939,3.8062,3.8143,3.799,3.7998,3.8389,3.8398,3.8406,3.852,0,0,0,0,0,0,3.7627,3.7656,3.7716,3.7756,3.7781,3.7952,3.7848,3.7847,3.789,3.788,3.7926,3.7929,3.7919,3.8049,3.8071,3.8153,3.8005,3.8382,3.8393,3.8403,3.8509,3.8531,3.855,0,0,0,0,0,3.7618,3.7745,3.772,3.7743,3.7857,3.7957,3.7971,3.7957,3.7897,3.7958,3.7971,3.7927,3.8131,3.8063,3.8087,3.8172,3.8377,3.839,3.8402,3.85,3.8527,3.855,0,0,0,0,0,0,3.7716,3.775,3.7722,3.7866,3.7909,3.7943,3.8019,3.7986,3.8048,3.8036,3.8016,3.8027,3.8156,3.8176,3.81,3.8328,3.8244,3.8262,3.831,3.8336,3.8356,3.8348,3.8012,0,0,0,0,0,3.7754,3.7832,3.7858,3.7982,3.8005,3.8009,3.8052,3.8037,3.8081,3.8099,3.8121,3.8166,3.824,3.8289,3.8358,3.8511,3.852,3.8582,3.8602,3.8619,3.8635,3.8716,3.8744,3.845,3.845,3.845,0,0,3.7834,3.7862,3.7913,3.8003,3.8034,3.8116,3.8025,3.8115,3.8175,3.8113,3.823,3.8248,3.8297,3.8436,3.8498,3.8456,3.8718,3.8636,3.8649,3.8656,3.8732,3.876,3.8785,3.8459,3.8457,3.8456,0,0,3.8021,3.8051,3.8157,3.819,3.8239,3.824,3.8266,3.8305,3.8314,3.8431,3.8386,3.8457,3.8585,3.8621,3.8657,3.8856,3.8818,3.888,3.8987,3.9067,3.909,3.911,3.9181,3.9206,3.8895,3.8896,3.8896,0,3.8115,3.8235,3.8216,3.8309,3.835,3.8296,3.8403,3.8437,3.8506,3.8535,3.8488,3.8646,3.8675,3.8821,3.8869,3.89,3.8928,3.8874,3.9088,3.9108,3.9127,3.9194,3.922,3.8903,3.8902,3.8901,3.89,0,3.8347,3.8431,3.8511,3.8578,3.8628,3.8728,3.8724,3.8776,3.8757,3.8763,3.8882,3.8915,3.899,3.9023,3.9006,3.9167,3.9139,3.9091,3.9006,3.9162,3.9225,3.925,3.8913,3.891,3.8908,3.8906,0,0,3.86,3.8653,3.8683,3.8712,3.8761,3.8826,3.8923,3.8995,3.904,3.909,3.917,3.9279,3.9234,3.9274,3.926,3.933,3.9484,3.9272,3.9273,3.931,3.9662,3.9698,3.9728,3.9459,3.9464,3.9468,3.9658,0,3.8788,3.8956,3.8941,3.9101,3.9178,3.9127,3.9212,3.9251,3.926,3.9327,3.9336,3.9413,3.9348,3.9372,3.9438,3.9451,3.9555,3.9438,3.9534,3.9538,3.9523,3.9761,3.9799,3.9977,3.9682,3.9686,3.9689,0,3.9031,3.9087,3.9254,3.929,3.9322,3.9398,3.9462,3.9526,3.957,3.9571,3.9615,3.9589,3.9687,3.96,3.9734,3.9655,3.9693,3.9706,3.9712,3.972,3.9623,3.9775,4.0033,4.006,3.9728,3.9725,3.9722,0,3.9197,3.9315,3.9429,3.9456,3.9501,3.9556,3.9577,3.9616,3.9659,3.9715,3.9743,3.981,3.9847,3.99,3.9892,3.983,4.0029,3.9942,4.0032,4.0033,4.0076,4.0073,4.0344,4.0103,4.0102,4.0102,4.0101,0,3.9409,3.9513,3.9504,3.9575,3.969,3.9671,3.9786,3.9801,3.9835,3.9907,3.9869,3.9938,3.9924,3.9993,3.9987,4.0099,4.0116,4.0119,4.0117,4.0123,4.0122,4.0147,4.0134,4.0109,4.0107,4.0106,4.0105,0,3.9614,3.9613,3.9734,3.9766,3.9777,3.986,3.9887,3.9954,3.9959,4.0051,4.0072,4.0079,4.0158,4.0156,4.0246,4.0242,4.0379,4.0362,4.0364,4.036,4.0451,4.0442,4.0746,4.0785,4.0519,4.0522,4.0524,0,3.9749,3.9827,3.9867,3.9913,3.9937,4.0011,4.0055,4.004,4.0087,4.0142,4.0202,4.0277,4.0336,4.0464,4.0478,4.0547,4.0531,4.0633,4.0541,4.0544,4.0531,4.0526,4.0534,4.0651,4.0654,4.0656,4.0658,0,3.9988,3.9983,4.0047,4.0112,4.0164,4.0214,4.026,4.03,4.0289,4.0345,4.0424,4.047,4.0561,4.0636,4.0701,4.0723,4.069,4.0687,4.0711,4.0718,4.0715,4.0717,4.0412,4.068,4.0678,4.0676,4.0675,4.0674,4.0162,4.0229,4.0267,4.0339,4.0372,4.0415,4.0478,4.049,4.0556,4.0628,4.0616,4.0704,4.0745,4.0829,4.0857,4.0926,4.089,4.0926,4.0935,4.0944,4.0953,4.0704,4.0939,4.0938,4.0937,4.0937,4.0936,0,4.0398,4.042,4.0487,4.0551,4.0608,4.057,4.0618,4.0668,4.0747,4.0787,4.0845,4.0936,4.1008,4.1027,4.1097,4.1148,4.1135,4.1167,4.1163,4.1168,4.0982,4.0954,4.1177,4.1177,4.1177,4.1177,4.1177,4.1177,4.0528,4.0638,4.0638,4.0764,4.0785,4.0871,4.0901,4.0941,4.0972,4.1075,4.1134,4.1146,4.1178,4.1248,4.1313,4.1316,4.1344,4.1382,4.138,4.1206,4.1182,4.1159,4.1131,4.1389,4.1389,4.156,4.1561,4.1563]},{"header":{"parameterUnit":"m.s-1","parameterCategory":1,"la1":30.2991,"la2":30.254,"lo1":-89.0895,"lo2":-89.0444,"dy":0.0017,"dx":0.0017,"nx":28,"ny":28,"refTime":"2024-04-03T21:00:00:Z","depth":0,"parameterNumber":3,"parameterNumberName":"V-component_of_WINDS"},"data":[0,0,0,0,0,0,0,0,0,0,0,0,0,0,0,0,0,0,0,0,0,0,0,0,0,0,0,0,0,0,0,0,0,0,0,0,0,0,0,0,0,0,0,0,0,0,0,0,0,0,0,0,0,0,0,0,0,0,1.4886,1.4885,0,1.4822,1.4822,1.4821,1.4734,1.4732,1.4731,1.4729,1.4665,1.4665,1.4665,0,0,0,0,0,0,0,0,0,0,0,0,0,1.4931,1.493,1.4886,1.4885,1.4884,1.4823,1.4822,1.4821,1.4734,1.4732,1.473,1.4729,1.4665,1.4665,1.4665,0,0,0,0,0,0,0,0,0,0,0,0,0,1.4894,1.493,1.4886,1.4833,1.4828,1.4823,1.4822,1.4821,1.4734,1.4732,1.473,1.4728,1.4665,1.4665,1.4664,1.4706,0,0,1.4663,1.4663,0,0,0,0,0,0,0,0,1.4896,1.4892,1.4842,1.4837,1.4831,1.4784,1.4814,1.4782,1.4735,1.477,1.4729,1.4727,1.4706,1.4702,1.4695,1.4703,1.47,1.4663,1.4663,1.4662,1.4662,0,0,0,0,0,0,0,1.4899,1.4894,1.4861,1.4841,1.4835,1.4813,1.4805,1.4808,1.4751,1.4767,1.476,1.4754,1.4703,1.4696,1.4693,1.4699,1.4663,1.4663,1.4662,1.4662,1.4736,1.4738,0,0,0,0,0,0,1.4909,1.4897,1.4863,1.4859,1.4859,1.4814,1.4805,1.4801,1.4751,1.4741,1.4756,1.475,1.4698,1.4694,1.4691,1.4735,1.4662,1.4662,1.4662,1.4734,1.4737,1.4739,0,0,0,0,0,0,1.491,1.4907,1.4865,1.4876,1.4869,1.4815,1.4811,1.4801,1.4794,1.4743,1.4732,1.4759,1.4696,1.4691,1.4702,1.4732,1.4662,1.4661,1.4731,1.4735,1.4738,1.4825,0,0,0,0,0,0,1.4912,1.4908,1.4923,1.4877,1.4869,1.4879,1.4813,1.4801,1.4793,1.4785,1.4743,1.4734,1.4694,1.4704,1.4702,1.473,1.4661,1.4728,1.4733,1.4737,1.482,1.4831,1.4841,0,0,0,0,0,1.4914,1.4951,1.4924,1.4921,1.4887,1.488,1.4876,1.4829,1.4796,1.4811,1.4778,1.4736,1.4729,1.4706,1.4703,1.4731,1.4726,1.4731,1.4736,1.4815,1.4829,1.4841,0,0,0,0,0,0,1.5002,1.4944,1.4914,1.4937,1.4914,1.4866,1.4883,1.4845,1.4832,1.4825,1.4767,1.4758,1.4776,1.4754,1.473,1.4768,1.4721,1.4726,1.4782,1.4795,1.4805,1.481,1.4661,0,0,0,0,0,1.5025,1.5024,1.4973,1.4998,1.4988,1.4938,1.4933,1.4899,1.4873,1.4863,1.483,1.4807,1.4799,1.4796,1.4786,1.4816,1.4805,1.4834,1.4845,1.4854,1.4859,1.4872,1.4884,1.4756,1.4756,1.4756,0,0,1.507,1.5038,1.5042,1.5015,1.4993,1.4994,1.493,1.4934,1.4933,1.4863,1.4872,1.4847,1.4817,1.4837,1.4845,1.482,1.4892,1.486,1.4868,1.4868,1.4879,1.4891,1.4902,1.4759,1.4759,1.4758,0,0,1.5154,1.513,1.5148,1.5127,1.5095,1.5061,1.5066,1.5022,1.5003,1.501,1.4957,1.4956,1.4944,1.4925,1.4913,1.4988,1.4949,1.4987,1.5044,1.5057,1.5067,1.5076,1.5102,1.5113,1.4992,1.4992,1.4992,0,1.5216,1.5214,1.5162,1.5169,1.5158,1.5094,1.5112,1.5094,1.5061,1.5055,1.5027,1.501,1.4986,1.5,1.5018,1.5011,1.5014,1.4992,1.507,1.5078,1.5086,1.511,1.512,1.4997,1.4996,1.4996,1.4995,0,1.5291,1.5291,1.5309,1.5278,1.5269,1.5281,1.5231,1.5229,1.5195,1.5163,1.5171,1.5139,1.5121,1.5122,1.5089,1.5131,1.5117,1.5081,1.5032,1.5103,1.5125,1.5134,1.5004,1.5002,1.5,1.4999,0,0,1.543,1.5368,1.5376,1.5361,1.532,1.5318,1.5327,1.5309,1.5308,1.5287,1.5292,1.5283,1.5249,1.5236,1.52,1.5212,1.5273,1.5174,1.5172,1.5193,1.5317,1.5345,1.5356,1.5246,1.5247,1.5248,1.5319,0,1.5505,1.5517,1.547,1.5494,1.5493,1.5431,1.5439,1.5414,1.5385,1.5379,1.5347,1.5341,1.5297,1.5288,1.5297,1.5264,1.5297,1.5258,1.525,1.5251,1.526,1.5368,1.5397,1.5466,1.5327,1.5329,1.533,0,1.5596,1.5579,1.5603,1.5559,1.5557,1.5565,1.5544,1.554,1.551,1.5488,1.5473,1.5431,1.5436,1.5389,1.5395,1.537,1.5363,1.5346,1.5348,1.5346,1.5295,1.5369,1.5486,1.5497,1.5343,1.5342,1.5341,0,1.5695,1.5678,1.5689,1.5678,1.5628,1.5635,1.5614,1.5582,1.5574,1.5556,1.555,1.5533,1.5523,1.551,1.5465,1.5435,1.5476,1.5425,1.5457,1.5458,1.5469,1.5469,1.5588,1.5465,1.5465,1.5465,1.5464,0,1.5785,1.5802,1.5733,1.574,1.5757,1.5702,1.572,1.5694,1.5666,1.5666,1.5612,1.5613,1.5553,1.5547,1.5511,1.5521,1.5517,1.5499,1.549,1.5504,1.5507,1.55,1.5494,1.5467,1.5467,1.5466,1.5466,0,1.5898,1.5853,1.5861,1.5813,1.5801,1.5816,1.5774,1.5778,1.5745,1.5746,1.5744,1.5692,1.5682,1.5635,1.5615,1.5591,1.5613,1.5594,1.5623,1.5617,1.5651,1.5649,1.577,1.5783,1.5652,1.5654,1.5655,0,1.5959,1.597,1.5922,1.5919,1.5901,1.5896,1.5887,1.5833,1.5826,1.5793,1.5801,1.5788,1.5774,1.5762,1.5722,1.5706,1.5686,1.573,1.5683,1.5698,1.5687,1.5687,1.5687,1.574,1.5742,1.5743,1.5744,0,1.6071,1.6047,1.6037,1.6019,1.6009,1.5992,1.5972,1.5972,1.5912,1.5907,1.5897,1.5887,1.5865,1.5852,1.5829,1.5807,1.5766,1.5759,1.5765,1.5781,1.5797,1.5789,1.5651,1.5756,1.5755,1.5754,1.5754,1.5753,1.6159,1.6166,1.6134,1.6124,1.6102,1.6084,1.6086,1.6053,1.6043,1.6022,1.5991,1.5985,1.5953,1.5918,1.59,1.5894,1.587,1.588,1.5882,1.5885,1.5893,1.5798,1.5889,1.5889,1.5888,1.5888,1.5888,0,1.6268,1.6244,1.6235,1.6208,1.62,1.6161,1.6136,1.6132,1.6128,1.6102,1.6089,1.6077,1.6064,1.6023,1.6005,1.6008,1.5989,1.6005,1.6005,1.6,1.5915,1.5911,1.6021,1.6021,1.6021,1.6021,1.6021,1.6021,1.6324,1.6334,1.6307,1.6305,1.628,1.6274,1.6263,1.6246,1.6225,1.6214,1.6203,1.6176,1.6144,1.6123,1.6109,1.6097,1.6093,1.6116,1.6098,1.6019,1.6006,1.5994,1.599,1.6116,1.6116,1.6184,1.6184,1.6185]}]]